Location: Kawakawa
(35.3830°S, 174.0670°E)
Time: 16:48:50
(UTC+12:00)

ISS - Pass Details

Date: 09 July 2022
Orbit: 412 x 420 km, 51.6° (Epoch: 15 August)

Event Time Altitude Azimuth Distance (km) Brightness Sun altitude
Rises 18:52:03 0° 240° (WSW) 2,377 0.8 -17.2°
Reaches altitude 10° 18:54:25 10° 254° (WSW) 1,504 -0.1 -17.7°
Maximum altitude 18:57:12 24° 310° (NW) 911 -1.3 -18.2°
Drops below altitude 10° 18:59:57 10° 6° (N) 1,485 -0.9 -18.8°
Enters shadow 19:02:23 - 21° (NNE) 2,382 0.0 -19.2°
